Wind_Speed
22 22 22 23 23 23 23 22 22 22 23 24 24 24 24 24 24 23 24 24 25 25 26 25 25 25 27 28 30 30 30 30 30 30 31 31 30 30 30 30 29 30 30 30 30 30 29 28 28 28 28 27 27 26 26 25 25 25 25 25 24 24 24 24 25 25 24 24 24
22 23 23 23 23 23 23 23 23 23 24 25 24 24 23 23 23 23 24 25 25 26 26 26 26 26 28 29 30 30 30 30 31 31 30 30 30 30 30 30 30 30 30 30 30 30 29 30 30 29 28 27 27 26 26 25 25 25 25 26 25 24 24 24 24 24 24 24 24
22 23 23 24 24 24 24 23 24 25 26 25 24 23 23 23 23 24 25 26 26 26 26 26 26 27 28 29 29 30 30 30 30 30 30 29 29 29 30 30 30 30 30 30 30 30 30 31 31 30 28 27 26 26 26 25 25 25 25 25 24 23 22 22 22 22 23 23 23
23 23 24 24 25 25 25 24 25 26 26 25 24 23 22 22 23 24 25 27 27 27 26 27 27 28 28 28 30 31 31 31 30 30 29 29 29 29 30 30 30 30 31 31 31 31 31 32 30 29 28 27 27 26 25 24 24 24 24 23 23 22 22 22 22 22 22 22 22
24 24 24 25 25 25 25 24 25 26 26 25 24 23 23 23 24 26 27 27 27 27 27 28 28 28 28 29 30 31 31 31 30 29 29 29 29 29 30 30 30 30 31 31 32 31 31 32 30 28 27 27 26 25 25 24 24 24 23 23 22 22 21 21 22 23 23 22 21
24 24 25 25 25 25 25 25 25 25 25 24 24 24 24 25 26 27 28 28 27 27 28 28 28 28 29 30 31 31 31 30 29 29 29 29 29 30 30 30 30 30 31 31 32 32 32 32 30 28 27 26 26 25 25 25 25 24 23 22 22 21 22 22 23 23 23 22 21
24 24 25 25 25 25 26 26 26 25 25 24 24 25 26 27 28 29 29 28 27 27 27 27 28 29 30 31 31 31 30 29 29 29 29 29 30 30 30 30 31 31 31 31 31 31 32 32 30 28 28 27 26 26 26 25 24 23 22 22 21 21 21 23 23 24 23 22 20
24 24 25 25 25 26 26 26 26 25 24 23 24 25 27 28 29 29 29 28 27 27 27 28 29 30 31 31 31 30 29 29 28 29 29 29 29 30 30 30 30 31 31 31 30 31 31 30 29 28 27 27 25 25 26 26 25 23 23 22 22 22 23 23 24 24 23 21 19
24 24 25 25 26 26 27 26 26 25 24 23 24 25 27 28 29 29 28 27 27 28 28 29 30 30 30 30 30 29 28 28 28 29 29 29 29 29 29 30 30 30 31 30 29 29 29 29 28 28 27 26 26 26 26 26 25 24 22 22 22 23 24 25 25 25 24 21 18
25 25 26 26 26 27 27 26 25 24 24 23 24 26 27 28 28 28 28 27 28 29 29 29 30 30 30 29 29 28 27 27 28 28 29 29 28 29 29 29 30 31 31 30 29 28 28 28 28 28 28 27 26 26 26 26 25 24 22 20 20 22 24 26 27 26 24 21 18
25 25 26 26 27 27 27 26 25 24 23 23 25 26 27 28 28 28 28 29 29 30 30 29 30 30 29 28 28 27 26 26 27 28 28 28 28 29 29 29 30 31 31 30 28 27 27 27 27 28 28 27 26 25 25 26 25 24 22 21 19 19 21 23 24 22 20 17 16
25 25 26 26 27 27 27 26 25 24 23 24 25 27 27 28 28 28 29 30 30 30 30 30 30 29 29 28 27 26 26 26 27 28 28 27 28 29 30 30 31 30 30 29 27 26 25 27 27 28 28 27 26 25 25 26 25 24 23 22 22 20 18 18 17 15 13 13 14
25 25 26 26 27 27 26 26 25 24 23 24 26 27 28 28 29 29 29 30 30 30 30 30 29 29 28 28 28 27 26 26 27 27 27 27 27 28 30 31 31 31 30 29 27 25 25 26 27 27 26 26 25 25 25 26 25 24 23 23 22 22 22 21 20 18 16 15 15
25 25 26 26 27 26 26 26 24 23 24 25 26 27 28 29 29 29 30 30 31 30 30 30 29 29 29 29 29 27 25 26 26 27 27 27 27 28 30 31 32 32 31 29 27 26 25 25 26 26 25 25 25 26 26 25 25 24 23 23 22 22 21 21 20 20 18 16 15
25 25 26 26 27 26 26 26 24 24 24 26 27 28 29 29 30 30 30 31 31 31 30 30 30 30 30 30 29 26 25 26 26 27 27 27 28 29 31 32 33 33 32 31 28 26 24 24 24 25 24 24 24 24 25 25 24 24 23 23 23 22 22 21 20 19 18 17 15
25 26 26 26 26 26 26 25 24 24 25 26 28 29 30 30 31 31 31 32 32 31 31 31 31 31 31 30 29 27 25 26 26 27 28 28 29 30 31 32 33 33 32 31 28 25 22 22 23 23 23 23 23 23 24 24 24 24 24 24 23 23 22 22 21 20 19 18 17
26 26 26 27 27 27 27 26 25 24 25 27 28 29 30 31 32 32 32 33 32 32 33 34 32 31 30 30 29 27 26 26 27 28 29 29 30 31 32 33 34 34 33 31 28 24 21 21 22 23 22 22 22 23 23 23 23 23 23 23 23 23 23 23 22 21 20 19 18
26 26 27 27 27 27 27 27 26 26 27 28 29 29 30 31 32 33 34 34 34 34 34 34 33 31 30 30 28 27 26 27 28 29 29 30 30 31 32 33 34 34 33 32 29 24 19 19 22 24 23 22 22 22 22 23 23 23 23 24 24 24 24 24 23 23 22 20 19
26 27 27 28 28 28 28 28 27 27 28 29 30 30 31 32 33 34 35 35 35 34 34 33 33 31 30 29 28 27 27 27 28 29 30 30 30 30 32 34 35 35 34 34 31 24 17 17 22 24 24 23 23 23 23 23 23 23 24 24 24 24 25 24 24 24 23 22 21
27 28 28 28 28 28 28 28 28 28 29 30 31 31 32 33 33 34 35 35 34 34 33 33 32 31 30 28 28 27 27 27 28 29 30 31 30 30 31 33 35 35 35 36 34 25 16 16 22 25 24 22 22 22 23 23 23 23 24 23 24 24 24 24 24 24 24 23 23
27 28 28 29 29 29 28 29 28 29 30 31 31 31 32 32 33 34 34 34 34 33 33 32 31 30 29 28 28 27 27 27 28 29 30 30 30 30 31 33 34 35 36 37 36 27 17 16 22 25 25 23 22 22 22 22 22 23 23 23 23 24 24 24 24 25 25 25 25
28 28 29 28 29 29 29 28 29 30 31 31 30 31 32 32 33 34 34 34 33 33 32 31 30 29 29 28 27 27 27 28 28 29 30 30 30 30 31 33 34 34 35 37 37 29 20 18 21 24 25 23 22 22 22 22 22 22 23 23 23 24 24 24 25 25 26 26 26
28 29 29 28 28 29 29 28 29 30 31 30 31 31 31 33 34 34 34 33 33 32 32 30 29 28 28 27 27 27 27 28 28 29 30 30 30 30 32 33 33 33 34 36 36 32 25 20 21 23 24 23 22 21 22 22 22 22 22 23 23 24 24 24 25 26 26 27 26
28 28 28 28 28 29 29 28 29 30 31 30 30 31 31 33 34 34 34 33 33 33 32 30 29 28 28 27 27 27 28 28 28 29 30 30 29 30 32 33 32 32 33 35 35 33 28 22 20 21 22 23 22 21 21 22 22 22 22 23 23 23 24 24 25 26 27 27 27
28 28 28 29 29 28 28 28 29 30 30 29 29 30 32 34 34 34 33 33 33 33 31 29 28 28 28 27 27 28 28 28 28 28 29 29 30 31 31 32 32 32 32 33 35 35 30 22 19 19 20 21 21 20 20 21 22 22 22 22 23 23 23 24 25 26 27 27 27
27 28 28 29 29 28 28 28 29 30 29 28 28 31 33 34 34 33 33 33 33 32 30 28 27 28 27 27 27 28 28 28 27 27 28 29 30 31 31 31 30 31 32 33 35 36 32 22 19 18 18 19 19 19 19 21 22 22 22 23 23 23 23 23 24 25 26 27 27
27 27 28 28 28 28 27 28 29 29 28 27 30 32 34 34 33 32 32 33 32 31 28 27 27 27 27 27 28 28 28 27 27 27 27 28 30 30 30 30 31 32 33 33 35 37 35 23 17 15 16 16 18 18 18 19 21 22 22 23 24 24 24 23 23 24 25 26 27
27 27 28 28 28 27 27 28 28 28 27 28 31 32 33 33 32 32 32 32 31 29 27 27 26 26 26 27 27 28 28 27 27 26 27 29 30 29 29 29 31 32 33 33 35 39 37 24 15 13 14 14 16 17 17 18 20 21 22 23 23 24 24 23 23 23 24 24 25
27 27 27 28 27 27 27 28 27 27 27 29 31 32 32 32 31 32 32 32 30 28 26 26 26 26 27 27 28 28 28 27 26 26 27 28 29 29 29 29 31 33 33 33 35 40 38 22 13 12 13 13 15 16 17 18 19 20 21 22 23 23 23 22 22 23 23 23 23
27 27 27 27 27 27 27 27 27 27 27 29 31 32 31 31 31 31 31 30 28 26 26 26 27 27 27 27 28 28 28 27 27 27 27 28 29 29 29 30 32 33 33 33 36 41 37 19 12 11 12 12 14 15 16 18 18 19 20 21 22 22 22 22 22 22 22 22 22
27 27 27 27 27 27 27 27 26 27 28 29 31 31 30 30 30 30 30 28 27 26 26 27 28 28 28 28 27 27 27 27 27 27 27 28 28 29 29 29 32 33 33 34 37 41 34 18 13 12 13 13 14 15 16 18 18 18 19 20 21 21 21 21 21 21 21 21 21
27 27 27 26 26 26 27 27 26 27 28 29 30 30 29 29 29 29 29 27 26 26 26 27 27 28 28 28 28 27 27 27 27 27 28 28 28 28 28 29 32 33 33 34 38 39 32 19 15 13 14 13 14 15 16 17 17 17 18 18 19 19 20 21 21 20 20 19 19
27 26 26 26 26 26 27 27 27 27 27 28 29 29 29 28 29 29 29 27 26 26 26 26 26 26 27 27 27 27 27 27 28 29 29 28 28 28 28 29 32 33 33 34 37 37 30 20 16 15 14 13 13 15 16 16 16 16 17 17 17 18 20 21 21 20 19 18 18
27 27 26 26 26 27 27 27 27 27 27 28 28 28 28 28 28 28 28 27 26 25 26 26 26 26 26 26 26 26 26 27 28 29 29 29 28 27 27 28 31 33 33 34 36 36 31 21 16 15 15 13 14 15 15 16 16 16 16 16 16 18 19 21 21 20 18 17 17
28 27 27 27 27 27 27 26 27 27 27 27 28 28 28 28 27 27 26 26 26 26 26 26 26 26 26 27 27 26 26 27 28 29 29 29 28 27 27 28 31 33 34 34 35 35 31 23 17 15 15 14 14 15 15 16 16 16 16 16 17 18 20 22 22 21 18 16 16
28 27 27 27 27 27 26 26 26 26 27 27 27 28 28 28 27 26 25 25 25 26 27 26 26 26 26 27 26 26 25 26 27 28 29 30 29 28 27 28 31 33 34 34 34 35 32 24 17 15 16 16 16 15 15 16 16 16 16 16 18 19 21 23 24 22 19 16 16
29 28 28 27 27 26 26 26 26 26 27 27 27 27 27 27 26 26 25 24 25 26 26 26 25 25 25 26 25 25 25 25 26 27 29 29 29 28 28 28 31 33 34 33 33 34 32 26 17 16 18 17 17 16 16 16 16 15 16 16 18 20 22 23 25 25 22 18 17
29 29 28 28 27 27 26 25 25 26 26 27 27 27 27 26 25 25 25 24 24 25 25 25 24 24 25 25 24 24 24 25 26 27 28 28 28 27 27 28 30 32 33 32 32 32 32 28 18 17 18 18 17 17 16 16 16 16 16 16 18 19 22 24 26 27 25 22 19
29 29 28 27 27 27 26 25 24 25 26 26 27 27 26 25 24 24 25 24 25 24 23 23 23 24 25 24 23 23 24 25 26 27 27 27 27 27 27 28 29 31 32 32 31 31 31 29 18 16 18 18 17 17 16 15 15 15 16 17 18 19 21 23 25 26 27 26 24
29 28 28 27 27 27 26 25 24 25 25 26 26 26 26 24 24 25 26 25 25 24 22 22 23 25 25 24 23 22 23 25 27 28 27 26 26 26 27 28 29 31 31 31 31 31 32 29 18 15 16 17 17 17 16 15 15 15 16 16 17 19 20 22 23 24 25 26 26
29 29 28 27 27 27 26 25 25 25 25 25 25 25 25 25 26 27 27 26 25 24 22 21 23 25 25 24 22 21 23 25 27 28 28 26 25 25 26 28 29 30 31 31 31 31 32 29 22 18 15 15 16 16 16 16 15 15 15 15 16 17 19 20 22 22 23 24 24
Wind_Direction
340 342 342 341 340 339 337 335 334 333 332 331 329 328 327 326 326 327 327 327 326 323 320 318 316 315 316 316 317 317 317 317 318 318 319 320 320 320 320 320 321 321 320 319 318 316 314 312 311 308 305 300 296 291 286 282 279 277 275 274 273 273 274 274 273 272 271 269 269
339 341 341 341 340 339 337 335 334 333 332 331 329 327 327 327 327 328 328 327 325 322 319 317 315 315 315 316 317 317 317 317 317 318 319 319 320 320 320 321 321 322 321 320 319 319 318 316 313 310 306 302 298 293 289 284 280 277 275 274 273 274 274 273 272 271 269 268 268
340 341 341 341 340 339 337 335 334 333 332 331 329 328 328 328 328 328 327 325 324 322 319 317 316 315 316 317 318 318 317 317 317 318 319 319 319 320 321 322 322 323 323 322 322 321 319 318 315 312 307 302 299 295 291 286 282 278 276 275 274 274 273 273 272 271 269 267 268
340 340 340 340 339 338 337 335 333 332 332 331 329 328 328 329 329 328 327 325 324 322 320 318 317 317 317 318 318 319 318 318 317 318 319 319 319 320 321 322 323 324 324 324 323 322 321 320 317 313 309 304 300 296 293 289 285 281 277 276 275 274 273 273 272 271 269 268 269
340 340 339 338 338 337 336 334 333 332 331 330 330 330 330 331 330 329 328 327 325 322 320 319 319 319 319 319 319 320 319 319 319 320 320 320 320 321 322 323 324 325 325 325 325 324 323 323 321 318 313 308 304 300 296 293 288 284 279 277 276 275 274 273 271 269 268 269 271
338 338 338 337 337 337 335 334 333 332 331 330 331 331 332 332 331 330 329 326 324 322 321 321 321 321 321 321 321 321 320 319 320 320 320 321 321 322 323 324 325 326 327 327 327 326 326 326 326 323 319 315 311 307 303 299 292 286 281 279 277 275 273 271 270 269 269 271 272
336 336 336 337 337 336 335 334 333 332 332 331 331 332 333 332 332 331 329 327 325 324 324 323 323 323 323 323 322 321 320 320 320 320 321 322 322 323 324 325 327 327 328 328 328 328 327 328 329 328 325 322 317 314 313 308 300 291 285 281 279 276 273 272 272 272 272 271 272
335 335 336 336 336 336 335 333 333 332 332 332 332 333 333 333 332 331 330 329 327 326 325 324 324 323 323 323 322 321 320 319 320 321 322 322 323 324 325 327 327 328 329 330 330 329 329 329 331 330 327 326 323 322 322 321 314 303 292 283 278 275 274 273 272 272 271 269 269
335 335 335 335 335 335 335 333 333 332 332 332 332 333 333 333 333 332 331 330 328 326 325 324 324 324 324 324 322 321 319 319 321 322 322 323 324 325 326 327 327 328 329 330 331 330 330 332 332 331 330 330 328 328 329 331 329 320 304 287 275 271 273 275 275 273 270 267 265
335 335 335 335 335 335 334 333 333 332 332 332 333 334 334 335 335 334 332 330 328 326 325 324 324 324 324 323 323 322 321 320 322 322 322 323 324 326 327 327 327 328 329 331 332 332 332 333 332 332 333 333 333 333 336 339 340 335 325 307 286 274 271 275 276 274 271 265 262
335 335 335 335 335 335 335 334 333 333 333 334 335 335 336 336 336 335 333 332 329 328 327 326 325 325 325 324 323 322 321 322 323 323 322 323 325 327 328 328 328 329 330 332 333 333 333 333 332 332 334 337 339 340 342 345 347 346 342 335 321 302 288 283 282 280 275 269 267
335 335 335 335 335 335 335 335 334 333 334 334 336 336 337 337 337 336 334 333 331 329 328 327 327 326 325 325 323 322 322 324 324 324 323 324 325 327 329 329 330 330 332 334 335 335 334 334 333 334 336 340 343 346 348 349 351 352 352 350 349 345 338 331 324 314 301 290 284
336 336 336 335 336 336 336 335 334 334 334 335 336 337 338 338 338 337 336 334 332 330 329 328 327 327 326 324 323 323 324 326 326 325 325 325 326 328 329 330 331 333 334 336 337 337 336 335 335 335 337 340 345 350 352 353 354 355 356 355 355 355 354 351 347 340 328 313 300
336 336 336 336 336 336 336 336 335 334 334 336 337 338 338 338 339 339 337 335 334 332 330 329 329 328 327 325 323 323 325 328 328 327 327 327 328 330 331 332 333 334 335 337 337 338 337 337 337 337 338 340 346 352 356 357 357 358 358 358 357 356 354 351 347 343 337 327 313
337 337 337 337 337 337 337 337 335 334 335 336 337 338 339 339 340 339 338 336 334 333 331 330 330 329 329 327 325 325 327 330 330 329 329 330 331 332 333 333 334 335 336 337 338 338 338 338 339 340 340 342 346 353 358 359 360 360 0 2 2 1 358 355 352 348 344 338 329
338 338 338 338 338 338 337 336 335 335 335 336 336 338 339 340 340 339 338 337 335 334 333 332 331 331 331 331 329 329 331 332 332 332 332 332 333 334 334 334 335 336 337 337 337 337 338 339 341 343 344 345 349 354 358 0 0 0 1 3 4 4 2 360 357 354 350 346 341
339 339 339 339 339 339 338 337 336 335 334 334 336 337 339 339 339 338 338 337 336 335 334 334 334 333 333 334 334 334 334 334 334 333 333 334 334 335 335 335 335 336 337 338 337 336 336 340 345 348 349 350 353 356 359 1 2 2 2 3 5 6 5 4 2 359 356 352 347
339 339 339 339 339 339 338 338 336 335 334 333 334 336 337 338 338 338 337 338 337 336 335 335 335 335 334 335 336 337 337 336 335 334 334 335 335 336 336 336 336 338 339 339 338 335 335 342 350 354 355 356 358 359 1 2 3 4 4 5 6 8 8 8 7 5 1 357 353
339 340 339 339 339 339 338 338 337 335 334 334 334 336 338 339 338 338 338 338 338 337 336 336 336 336 336 336 336 337 337 337 336 335 336 336 337 337 338 338 338 339 340 341 340 336 335 346 355 359 360 360 0 2 3 3 4 5 6 7 8 9 11 11 11 10 7 2 359
340 340 340 339 339 338 338 337 336 335 335 335 336 338 339 339 338 338 338 338 338 338 338 337 337 336 336 336 336 337 337 337 337 337 337 338 338 339 339 339 339 339 341 343 342 338 336 351 359 2 2 2 2 2 3 4 4 6 7 8 9 11 12 14 15 14 12 9 6
340 340 339 339 338 337 336 336 335 335 335 336 337 339 340 339 338 338 338 338 339 339 339 339 338 336 336 336 336 336 337 337 338 338 339 339 340 340 341 340 340 339 341 343 342 339 340 354 0 2 3 4 3 3 4 4 4 5 8 9 11 13 15 16 17 17 16 14 13
340 339 339 339 338 337 336 336 335 336 337 337 339 340 341 339 339 339 339 340 340 341 340 340 338 337 337 337 337 337 337 338 338 339 340 341 342 342 342 342 341 340 340 341 341 341 344 356 1 2 3 5 5 5 5 5 4 5 7 10 12 15 17 19 20 20 19 18 16
339 339 339 339 338 338 338 337 337 337 338 339 341 342 341 340 340 340 341 341 342 342 342 341 339 338 338 338 338 338 338 338 339 340 341 343 343 343 344 344 342 340 339 339 340 342 348 358 1 1 2 5 5 6 7 7 6 6 7 10 13 15 18 20 22 23 22 20 19
339 339 339 339 339 339 339 338 338 338 340 342 343 343 342 342 341 342 342 343 343 344 343 342 340 340 339 339 339 339 339 339 340 340 342 343 343 344 344 344 343 341 339 338 339 344 352 359 2 1 1 4 5 7 9 10 9 9 10 12 13 15 17 20 23 25 24 22 21
339 339 339 340 339 339 340 340 339 340 342 344 344 344 343 343 343 343 343 343 344 345 344 342 341 341 340 340 340 341 341 341 341 341 342 343 343 344 344 344 343 341 339 337 339 347 355 360 2 1 1 3 6 9 12 13 12 12 12 14 15 16 17 19 23 25 26 24 23
338 339 340 340 341 341 341 341 341 341 342 343 344 344 344 344 344 343 343 343 344 345 344 342 342 342 341 341 342 342 342 342 342 342 343 343 343 344 344 344 343 342 340 337 338 346 354 358 2 2 1 3 7 10 13 14 15 15 15 17 18 18 18 18 20 23 25 25 25
339 340 341 341 342 342 342 342 342 341 342 343 344 344 344 344 344 344 344 344 345 345 344 343 343 342 342 342 343 343 343 342 342 343 343 343 344 344 343 343 343 342 340 338 338 343 348 352 360 4 5 6 9 13 16 16 16 17 17 19 20 21 20 19 20 22 24 25 25
339 339 340 342 342 342 342 342 343 343 343 344 344 344 344 344 344 344 344 344 345 345 345 344 343 342 342 342 343 343 343 343 343 343 343 344 345 344 344 343 343 342 341 338 337 340 343 347 358 8 10 9 11 16 20 20 19 18 18 20 21 22 21 21 21 22 23 24 24
338 339 340 341 342 342 342 342 343 343 343 343 343 343 344 344 345 344 344 345 344 344 344 343 342 341 342 342 343 344 344 344 344 344 345 345 345 345 345 344 343 343 341 339 337 339 343 348 6 18 15 15 13 17 22 23 21 20 19 20 21 21 21 21 23 24 24 24 24
338 339 340 340 341 341 342 342 342 342 343 342 343 343 344 344 345 345 344 344 343 343 342 342 341 341 342 342 344 345 345 346 346 346 346 346 346 346 345 345 344 344 343 340 338 341 347 1 24 29 21 18 15 17 21 22 22 22 21 21 21 21 21 22 24 25 26 26 25
337 338 339 339 340 340 340 341 341 342 342 342 343 344 344 344 344 344 344 343 342 341 341 342 342 342 342 343 344 345 346 346 347 347 347 347 346 346 345 345 345 345 343 340 339 344 354 19 38 35 24 21 16 15 17 19 21 22 22 22 21 20 20 20 23 26 28 28 28
337 337 338 338 338 339 339 339 340 340 341 341 343 344 344 344 344 344 343 343 341 341 341 342 343 343 342 343 344 345 346 346 347 347 347 347 346 346 346 346 346 346 344 341 341 347 359 27 39 33 24 21 18 16 16 17 20 22 24 24 22 19 18 18 21 25 29 31 31
337 337 337 338 338 338 338 338 339 339 339 341 342 343 343 343 343 343 344 343 342 341 341 342 341 341 341 342 342 344 345 345 346 346 347 347 347 347 347 347 347 346 344 342 343 350 2 25 34 28 21 21 20 20 20 20 22 24 24 24 22 19 17 18 21 26 32 35 36
336 336 337 337 337 337 337 337 338 338 338 340 341 343 343 343 343 343 343 342 341 340 340 341 341 341 341 342 342 343 344 345 345 345 346 347 348 348 349 348 348 346 344 343 344 351 2 20 28 25 22 23 25 25 26 26 27 27 26 25 22 20 18 19 22 27 34 39 41
335 335 335 336 336 337 337 336 336 337 337 339 340 341 342 343 342 342 342 341 340 340 341 341 342 342 343 343 344 344 345 346 346 346 346 347 348 349 349 348 348 348 347 345 345 350 359 16 27 28 25 28 30 31 31 31 30 29 28 26 24 22 21 21 23 28 36 45 50
334 334 334 334 335 336 336 336 336 336 336 337 338 340 341 341 341 341 341 340 340 341 342 342 343 343 343 343 343 344 345 346 346 346 347 349 349 349 349 348 348 349 349 346 345 348 356 13 29 33 31 34 37 38 37 35 32 31 30 29 26 25 24 24 24 27 35 49 59
333 333 333 333 333 334 335 335 335 334 335 336 337 338 339 340 340 340 340 340 341 341 341 341 342 342 343 342 341 342 344 346 346 347 348 349 350 350 349 348 348 349 349 347 345 346 353 10 32 41 37 41 44 45 42 39 35 32 30 29 28 27 27 27 27 27 32 45 63
331 332 332 332 332 332 333 333 333 333 333 334 335 337 338 339 339 339 339 339 340 340 339 340 340 341 342 342 341 341 343 346 347 348 349 350 350 351 350 349 349 349 349 347 346 345 352 9 35 48 42 46 49 50 47 42 37 33 30 29 29 29 30 31 30 29 31 39 55
329 330 330 330 330 331 331 330 330 331 331 332 333 335 337 338 339 338 338 339 339 339 338 337 339 341 342 343 342 342 343 345 346 348 349 350 350 351 351 350 349 350 349 348 346 344 350 7 35 50 45 48 52 54 52 47 41 35 32 30 29 29 31 33 34 34 35 39 45
327 327 328 328 328 328 328 327 327 328 329 330 331 333 335 337 337 338 338 339 340 339 338 337 338 341 343 344 343 343 343 344 346 348 350 350 350 351 351 351 350 350 350 349 348 344 348 3 28 46 45 49 53 56 56 53 46 39 34 30 28 28 29 32 36 38 39 41 42
325 325 325 326 326 326 325 324 324 325 327 328 329 331 333 335 336 338 339 339 339 338 337 336 338 341 344 345 344 343 343 343 345 347 350 351 352 352 352 352 351 351 350 350 349 346 348 1 20 35 41 46 51 55 57 57 52 45 38 33 30 28 29 32 36 39 40 41 43
Height
863 862 861 859 857 856 854 852 850 848 847 845 842 840 838 836 834 832 830 828 826 824 822 819 817 815 813 811 809 807 804 802 800 798 796 794 792 789 787 785 783 781 778 776 774 771 769 767 765 762 760 757 755 752 750 748 747 745 743 742 740 739 738 737 736 735 734 733 732
863 862 861 859 857 856 854 852 850 848 847 845 842 840 838 836 834 832 830 828 826 824 822 819 817 814 812 810 808 806 804 802 799 797 795 793 791 788 786 784 782 779 777 775 772 770 768 765 763 760 757 754 752 750 748 746 744 743 741 739 738 737 735 734 733 732 732 731 730
863 862 860 858 857 855 853 852 850 848 846 844 842 840 838 836 834 832 830 828 826 824 821 818 816 814 812 809 807 805 803 801 798 796 794 792 789 787 785 783 780 778 776 773 771 768 766 763 761 758 755 752 749 747 745 743 742 740 738 737 736 735 733 732 731 730 729 728 727
863 862 860 858 857 855 854 852 850 848 846 844 842 840 838 836 834 832 830 827 825 823 820 818 815 813 811 808 806 804 802 800 798 795 793 790 788 786 783 781 779 777 774 772 769 767 764 762 759 756 753 750 747 745 743 740 739 738 736 735 733 733 731 730 729 728 727 725 724
863 861 860 858 857 855 853 852 850 847 846 844 842 840 838 836 834 832 829 827 824 822 820 817 815 812 810 808 806 803 801 798 796 794 791 789 787 784 782 780 778 775 773 770 768 765 763 760 757 754 751 748 745 743 740 738 737 735 734 733 731 730 729 728 727 725 724 723 722
862 861 860 858 856 855 853 851 849 847 846 843 842 840 838 836 834 832 829 827 824 821 819 817 814 812 809 807 805 802 799 797 795 793 790 788 785 783 781 778 776 774 772 769 767 764 761 758 755 752 749 746 743 740 738 736 734 733 731 730 729 728 727 726 724 723 722 721 720
863 861 859 857 856 854 852 851 849 847 845 843 841 840 838 836 834 831 829 827 824 821 818 816 814 811 809 807 804 801 799 797 794 792 789 787 784 782 780 778 776 773 771 768 766 763 760 757 754 751 748 745 742 738 736 734 732 730 729 728 727 726 725 724 723 721 720 719 718
863 861 859 857 856 854 852 850 848 847 845 843 841 839 837 835 833 831 828 826 823 821 818 816 813 811 808 806 804 801 799 796 794 791 789 787 784 782 780 778 775 773 770 768 765 763 760 757 754 751 747 744 741 738 735 733 731 728 727 726 725 724 723 722 721 719 718 717 716
862 860 858 857 855 853 851 849 848 846 844 842 841 839 837 835 832 830 827 825 823 820 818 815 813 810 808 806 803 801 798 796 794 791 789 786 784 782 780 777 775 772 770 767 765 762 759 757 753 750 747 744 741 738 735 732 729 727 725 724 723 722 720 719 718 717 716 715 714
862 860 858 856 854 852 851 849 847 845 844 842 840 838 837 834 832 830 827 825 822 820 817 815 812 810 807 805 803 801 798 796 794 791 788 786 784 782 780 777 775 772 769 767 764 762 759 756 753 750 748 744 741 738 735 732 729 727 724 723 721 720 718 717 716 715 714 713 712
861 859 858 856 854 852 850 848 846 845 843 841 840 838 836 834 832 829 827 825 822 819 817 814 812 809 807 804 802 800 798 796 793 791 788 786 784 782 780 777 774 772 769 767 764 762 759 756 753 750 748 745 741 738 735 732 729 727 724 723 721 719 718 716 715 713 713 712 711
861 859 857 856 853 852 849 848 846 844 842 841 839 837 835 833 831 829 827 824 821 818 816 813 811 809 806 804 802 799 798 795 793 791 788 786 784 782 779 777 774 771 769 766 764 762 759 757 753 751 748 745 742 738 735 732 729 727 725 723 721 719 717 716 714 713 712 711 710
861 859 857 855 853 851 849 847 846 844 842 841 839 837 835 833 831 828 826 823 821 818 815 813 810 808 806 803 801 799 797 795 793 790 788 786 783 781 778 776 773 771 768 766 764 762 760 757 754 751 748 745 742 739 736 733 730 728 725 723 721 719 717 716 714 713 712 711 709
861 859 857 855 853 851 849 847 846 844 842 840 838 837 835 832 830 828 826 823 821 818 815 812 810 807 805 802 800 798 797 795 792 790 788 785 783 781 778 775 773 770 768 766 764 762 760 757 754 751 748 746 743 740 737 734 731 729 726 724 722 720 718 716 715 713 712 711 709
860 859 857 855 853 851 849 847 846 844 842 840 838 837 834 832 830 828 826 823 820 817 815 812 809 807 804 802 800 798 796 794 792 789 787 784 782 780 777 774 772 770 768 766 763 762 759 757 754 752 749 746 743 740 737 735 732 730 728 725 723 721 719 717 716 714 713 711 709
860 858 857 855 853 851 849 848 846 844 842 840 838 837 834 832 830 827 825 822 820 817 814 812 809 806 803 801 799 798 796 793 791 788 786 784 781 779 777 774 771 769 767 765 763 761 759 757 755 752 749 746 743 740 738 735 733 730 728 726 724 722 720 718 716 715 713 712 710
860 858 856 854 853 851 849 848 846 844 842 840 838 836 834 832 830 827 825 822 819 817 813 811 808 806 803 801 799 797 795 793 791 788 786 783 781 779 776 773 771 769 767 765 763 761 759 757 754 752 749 746 743 741 738 736 733 731 729 727 724 722 720 718 717 715 714 712 711
859 858 856 854 852 851 849 847 846 844 842 840 838 836 834 832 829 827 824 822 819 816 813 810 807 805 803 801 799 797 795 793 790 788 786 783 781 779 776 773 770 768 766 764 762 760 758 757 754 751 749 746 743 741 738 736 733 731 729 727 725 723 721 719 718 716 714 713 711
859 857 856 854 852 851 849 847 845 843 842 839 837 835 833 831 829 826 823 821 818 816 813 810 807 805 802 801 799 797 795 793 790 788 785 783 781 778 776 773 770 767 765 763 761 759 758 756 754 751 749 746 743 741 739 736 734 732 729 727 725 723 721 719 718 716 715 714 712
859 857 856 854 852 850 848 847 845 843 841 839 837 835 833 831 828 826 823 820 817 815 812 810 807 804 802 801 799 797 795 793 790 788 785 783 781 778 776 773 769 767 764 762 760 758 757 755 753 751 749 746 744 742 739 737 734 732 730 728 726 724 722 720 718 717 715 714 712
859 857 856 854 852 850 848 846 844 842 840 838 836 834 832 830 828 825 822 820 817 815 812 809 807 805 802 800 798 796 794 792 790 788 785 783 781 778 776 773 769 767 764 762 759 758 756 755 753 751 749 747 744 742 740 738 735 733 731 729 727 725 723 721 719 718 716 714 713
859 857 856 854 852 850 848 846 844 842 840 838 836 834 832 830 827 825 822 819 817 814 812 809 807 805 802 800 798 796 794 792 790 788 785 783 781 778 776 773 770 767 764 761 759 757 756 754 753 751 749 747 745 743 741 738 736 734 732 730 728 726 724 722 720 718 717 715 713
859 857 855 853 852 850 847 846 843 842 839 837 835 833 832 829 827 824 821 819 816 814 811 809 807 805 802 801 798 796 794 792 789 787 785 783 781 778 775 773 770 767 764 762 759 758 756 754 752 751 749 747 745 743 741 739 737 735 733 731 728 727 725 723 721 719 718 716 715
859 857 855 853 851 849 847 845 843 841 839 837 835 833 831 829 826 823 820 818 816 813 811 809 807 805 802 800 798 796 794 792 789 787 785 783 781 778 776 773 770 768 765 762 760 759 757 754 753 751 750 748 746 744 742 740 738 737 734 732 730 728 726 725 723 721 719 718 717
858 857 855 853 851 849 847 845 843 841 838 837 835 833 831 828 825 823 820 817 815 813 811 809 807 805 802 800 798 796 794 792 790 788 785 783 781 778 776 773 771 768 766 763 761 759 757 755 753 752 750 748 747 745 743 742 740 738 736 733 731 729 728 726 724 723 721 720 718
858 856 854 852 850 848 847 845 843 841 838 837 835 832 830 828 825 822 820 817 815 813 811 809 807 805 802 800 798 796 794 792 790 788 786 784 781 779 777 774 772 769 766 763 761 759 758 755 754 753 751 749 748 746 744 743 741 739 737 735 733 731 729 728 726 724 723 722 720
858 856 854 852 850 848 847 845 842 840 838 836 834 832 830 827 825 822 820 817 815 813 811 809 807 805 802 801 798 796 794 792 790 788 787 784 782 780 777 775 773 770 767 764 762 759 758 755 754 753 751 750 748 747 745 744 742 740 738 736 734 733 731 729 728 726 724 723 722
858 856 854 852 850 848 846 844 842 840 838 836 834 832 830 827 825 822 820 817 815 813 811 809 807 805 803 801 799 797 795 793 791 789 787 785 783 781 778 776 773 770 767 765 762 759 757 755 753 752 751 750 748 747 746 745 743 741 739 738 736 734 733 731 730 728 726 725 724
858 856 854 852 850 848 846 844 842 840 838 836 834 832 830 827 825 822 820 817 815 813 812 810 807 805 803 802 799 797 795 793 791 789 787 785 783 781 779 777 774 771 768 765 762 759 756 753 753 752 752 750 749 748 747 746 744 743 741 739 737 736 734 733 731 730 728 727 726
858 856 854 852 850 848 846 844 842 840 838 836 834 832 829 827 825 822 820 818 816 814 812 811 808 806 804 802 800 798 796 793 792 790 788 786 783 781 779 777 774 771 768 765 763 759 756 753 753 752 752 751 750 749 748 747 745 744 742 741 739 737 736 734 733 731 730 729 728
857 856 854 852 850 848 846 844 842 840 838 836 834 832 829 827 825 823 821 819 817 815 813 811 808 807 804 802 801 798 796 794 792 790 788 786 784 782 780 778 774 771 768 766 763 760 757 754 753 753 753 752 750 749 748 747 746 745 743 742 740 738 737 735 734 733 732 731 729
857 856 853 852 850 848 846 844 842 840 838 836 834 832 830 827 826 824 822 819 817 815 813 811 809 807 805 803 801 799 797 795 793 791 789 787 785 783 780 778 775 772 769 767 764 762 759 756 755 754 753 752 751 750 749 748 747 746 744 743 742 740 738 737 735 734 733 732 731
857 855 853 852 849 847 846 844 842 840 838 836 834 832 830 828 826 823 821 819 817 815 813 812 809 807 805 803 801 799 798 795 793 791 789 788 786 783 781 779 776 773 770 768 765 763 760 758 756 755 754 753 751 750 749 748 748 747 745 744 743 741 739 738 737 736 734 734 733
857 855 853 851 849 847 845 843 842 840 838 836 834 832 830 828 826 823 822 820 818 816 814 812 810 808 807 804 802 800 798 796 794 792 790 788 786 784 782 780 777 774 771 768 766 764 762 759 757 756 755 753 752 751 750 749 748 747 746 745 743 742 741 739 738 737 736 735 734
857 855 853 851 849 847 845 843 841 839 837 836 833 832 830 828 826 824 822 820 818 816 814 812 811 809 807 805 803 801 799 797 795 793 790 788 787 784 783 780 778 775 772 769 767 765 763 761 758 757 755 754 753 752 751 750 749 748 747 746 744 743 742 741 739 738 737 737 736
857 855 853 851 849 847 845 843 841 839 837 835 833 832 829 828 826 824 822 820 818 816 814 812 811 809 807 805 803 801 800 798 796 793 791 789 787 785 783 781 778 776 773 770 768 766 764 762 759 758 756 755 753 753 752 751 750 749 748 747 746 744 743 742 741 739 738 738 738
856 855 853 851 849 847 845 843 841 839 837 835 833 832 830 828 826 824 822 821 818 816 814 812 811 809 808 806 804 802 800 799 797 794 792 790 788 786 784 782 779 776 773 771 769 768 766 763 760 758 757 755 754 753 753 752 751 750 749 748 747 746 745 743 742 741 740 739 739
856 854 852 851 848 847 845 843 841 839 837 835 833 832 830 828 826 824 822 821 819 817 815 813 812 810 808 807 804 802 801 799 797 795 793 791 789 787 785 783 780 777 774 772 770 768 767 765 761 759 758 757 756 755 754 753 753 751 750 749 748 747 746 745 743 742 741 740 740
855 854 852 850 848 846 844 842 841 839 837 835 833 831 830 828 826 825 823 821 819 817 816 814 812 810 809 807 805 803 801 799 798 796 794 792 790 788 786 783 781 778 775 773 771 769 768 765 762 760 759 758 757 756 755 755 754 753 752 750 749 748 748 747 745 744 743 742 742
855 853 852 850 848 846 844 842 840 839 837 835 833 831 829 828 826 825 823 821 819 817 816 814 812 811 809 807 805 803 801 799 798 796 794 793 790 788 786 784 781 779 776 774 772 770 768 766 764 762 761 759 758 757 757 756 755 754 753 752 751 750 749 748 747 746 745 744 744
854 852 851 849 847 846 843 842 840 838 836 834 833 831 829 828 826 824 822 821 819 817 816 814 812 811 809 807 805 803 802 799 798 796 794 793 791 789 787 784 782 780 777 775 773 771 769 768 766 763 762 761 760 759 758 757 756 756 755 754 753 752 751 750 749 748 748 747 746